Theta_e
304 302 300 297 295 297 298 300 309 311 311 312 313 314 314 312 311 312 312 322 324 326 326 325 325 324 325 325 325 325 324 325 326 325 326 325 326 324 326 326 325 326 328
303 302 300 297 294 294 296 301 309 309 308 310 310 311 310 312 312 311 309 310 317 319 320 321 321 323 324 324 322 322 321 321 322 323 322 322 322 322 322 324 324 326 327
304 300 298 296 294 294 296 300 307 307 306 308 306 309 309 309 311 311 309 306 306 312 313 313 315 317 318 319 320 318 317 317 318 319 319 318 318 319 320 322 322 322 323
303 299 296 295 294 294 294 295 300 304 304 304 304 305 307 308 309 309 309 307 304 303 305 310 310 311 313 316 317 317 316 315 316 316 316 317 315 315 318 319 319 319 319
300 297 295 294 294 292 291 291 292 300 300 299 301 304 305 306 304 305 303 303 300 301 299 304 308 309 309 310 312 314 315 315 315 314 315 315 315 314 314 314 316 317 317
299 296 294 294 293 291 290 290 290 291 293 290 294 295 298 304 304 301 300 302 299 299 298 297 297 299 307 309 310 311 311 313 313 314 314 314 315 315 315 314 314 314 315
299 296 294 294 293 291 290 290 290 290 290 290 289 289 292 299 302 303 301 300 299 299 297 296 294 294 296 306 310 311 311 311 312 313 313 313 314 314 315 316 315 314 314
298 296 295 294 293 292 291 290 289 288 289 289 288 288 287 290 295 296 298 300 298 297 298 297 295 294 293 294 298 307 309 311 312 312 312 312 313 314 315 316 316 315 314
298 297 295 294 293 292 291 290 289 289 287 288 289 287 284 283 286 287 291 295 297 296 295 295 295 295 294 293 297 300 306 308 310 312 312 312 312 313 314 315 316 315 315
298 298 298 295 294 293 291 290 290 289 288 287 288 291 288 288 284 284 287 288 289 291 293 293 293 294 295 294 297 300 304 306 309 311 313 313 313 313 314 314 315 315 315
300 299 299 296 294 294 292 291 290 289 289 288 288 288 287 287 286 285 284 286 289 290 290 290 291 291 293 293 293 296 303 306 309 311 313 314 314 314 314 314 315 315 315
302 301 300 297 296 295 294 293 291 290 290 289 289 288 288 287 286 285 284 284 284 288 288 289 289 290 290 291 295 300 302 304 307 310 312 313 314 314 314 314 314 314 314
300 301 300 298 297 297 296 294 293 291 291 290 289 289 289 289 289 288 286 285 284 285 287 288 289 289 291 289 290 297 300 302 304 307 310 312 312 312 313 313 314 313 313
299 299 299 299 298 298 297 296 293 293 292 290 290 289 290 290 290 289 288 285 285 284 285 287 288 289 289 289 293 300 293 300 303 305 307 308 308 309 309 310 310 311 311
301 299 298 297 297 297 296 295 294 293 292 291 291 290 289 290 290 290 289 288 285 282 285 288 288 289 289 290 293 293 291 297 301 302 304 304 305 307 307 307 307 307 307
300 299 298 297 296 295 295 294 293 293 292 291 292 290 290 290 290 289 289 288 287 287 286 288 292 292 291 292 293 293 292 297 299 300 301 302 303 304 305 306 306 305 305
296 295 294 293 292 292 291 291 290 291 290 289 289 289 288 288 287 288 288 288 287 286 285 288 290 292 291 291 292 290 290 290 290 297 299 300 301 301 302 303 304 305 305
292 292 291 290 289 289 288 288 287 287 288 288 287 286 286 289 286 286 286 286 286 287 286 285 288 288 288 291 290 288 291 292 291 295 298 299 299 300 301 301 302 303 304
289 288 287 286 287 287 286 285 285 286 286 286 286 286 286 286 285 285 285 285 286 288 286 286 287 287 287 287 287 287 288 288 290 294 297 298 297 298 298 299 300 301 302
286 285 285 285 286 286 286 286 287 286 286 287 287 287 286 286 285 285 286 286 287 285 286 285 286 286 284 286 285 286 286 286 287 290 293 295 296 297 297 298 298 299 300
285 285 285 285 285 286 287 289 289 288 287 287 287 287 287 288 292 292 288 285 285 285 285 285 285 285 285 286 286 287 286 287 288 289 288 288 289 289 290 293 294 295 296
284 284 284 284 284 286 292 295 294 288 287 286 285 286 285 288 288 292 292 292 291 286 285 284 285 284 285 286 286 285 285 284 282 288 288 287 290 289 290 290 294 295 296
283 283 283 284 283 284 292 294 294 288 286 285 284 284 285 287 288 285 288 291 291 292 292 288 284 284 284 285 286 284 285 284 284 287 287 285 287 287 289 290 294 296 296
283 283 283 283 283 284 291 292 292 286 284 284 284 284 283 283 284 287 287 286 287 287 287 287 286 286 286 288 287 287 287 287 287 286 284 281 285 285 287 288 293 294 294
282 282 282 282 281 282 289 291 290 284 283 283 283 283 283 284 288 291 288 286 286 286 290 291 291 291 292 292 291 288 286 283 281 281 283 284 284 283 284 285 288 293 293
282 282 281 281 284 281 287 290 289 284 282 282 283 283 288 288 290 290 287 286 285 284 285 286 288 289 289 289 289 286 284 281 280 280 282 282 282 283 282 284 285 286 286
Wind_Speed
4 3 3 3 3 3 3 4 3 4 4 4 4 4 4 3 3 2 2 9 10 10 9 7 6 5 5 6 8 10 9 8 7 7 7 8 10 9 10 8 7 9 9
4 3 4 3 4 3 3 3 3 3 3 3 4 4 3 0 2 3 2 3 8 8 7 7 7 8 8 8 5 6 8 9 9 9 8 9 10 9 8 9 6 6 10
4 4 4 3 3 3 4 4 3 3 4 3 3 3 3 3 1 3 2 1 3 6 6 7 8 8 8 7 6 5 5 6 7 8 8 7 8 8 7 7 8 7 9
6 4 4 2 3 4 3 4 3 3 3 3 2 3 3 3 1 1 1 1 0 1 4 5 5 6 7 7 6 5 4 4 6 6 6 5 4 6 7 7 7 7 6
6 5 4 1 3 4 4 3 3 2 2 3 3 3 3 3 2 1 2 2 2 1 1 4 3 4 6 6 7 7 7 6 6 6 7 7 6 5 6 6 6 7 8
5 5 4 3 2 4 4 3 3 3 2 2 3 4 4 3 3 3 3 3 2 3 2 3 3 3 7 8 8 8 8 9 9 8 8 8 9 9 8 7 7 6 7
4 5 3 3 2 5 3 3 2 4 3 4 2 3 3 3 4 3 3 3 4 3 3 3 3 3 4 9 11 10 10 11 11 11 10 10 10 11 11 10 9 8 8
4 3 4 3 3 4 4 4 5 2 2 4 2 1 4 5 4 3 3 3 5 3 4 5 5 5 4 4 7 12 14 14 13 13 13 13 12 12 12 13 12 10 9
4 3 4 4 3 3 3 2 3 4 2 2 4 3 3 2 4 3 3 3 3 2 4 5 6 6 6 5 7 9 14 15 15 16 15 15 15 14 14 14 14 13 11
3 3 3 4 3 2 3 1 3 2 2 3 2 2 1 2 0 5 3 3 4 4 5 4 5 6 6 5 9 12 14 15 17 18 17 18 17 17 16 16 16 15 14
3 2 2 3 3 2 1 2 2 2 1 1 1 2 2 2 1 1 5 5 4 4 4 5 5 5 6 5 5 8 16 18 19 19 19 19 19 18 18 18 17 17 16
1 1 2 2 2 2 1 1 1 1 1 1 0 1 1 0 1 0 2 4 5 5 4 5 5 5 5 4 7 12 14 16 19 21 22 21 20 20 19 19 19 19 18
1 3 3 2 1 1 1 1 1 1 1 1 1 1 2 2 1 2 2 4 3 4 4 4 4 4 4 4 5 8 10 13 16 19 23 23 21 20 20 21 21 20 20
2 2 2 2 2 1 1 0 0 1 1 2 3 3 3 3 2 3 3 2 5 3 3 6 3 4 3 3 5 11 7 17 19 20 20 21 23 21 21 21 21 22 21
2 3 3 2 2 1 1 1 1 2 2 2 3 3 3 3 2 3 3 3 4 4 4 3 4 4 3 4 8 6 7 14 19 20 21 21 21 21 23 23 23 22 22
2 3 3 3 3 4 4 3 2 2 2 2 2 3 3 2 3 3 3 4 4 5 7 3 7 8 6 6 8 8 8 16 18 21 22 22 21 22 23 24 25 25 24
4 5 4 4 4 5 4 4 3 3 4 4 4 3 5 4 4 4 3 3 4 4 8 6 5 9 10 10 9 5 6 7 7 19 21 22 22 22 22 23 24 25 26
5 5 5 5 4 4 4 4 4 4 4 4 5 5 6 4 6 5 3 6 5 5 5 12 5 5 7 9 10 8 8 6 6 13 20 21 22 23 24 24 23 24 24
6 5 5 5 4 5 5 4 4 4 5 5 5 5 6 5 5 4 5 5 4 5 5 6 10 4 5 4 6 7 8 7 6 14 19 21 21 22 23 24 24 23 22
6 5 5 5 5 4 4 4 5 5 5 5 5 5 6 6 6 6 6 6 6 5 6 7 9 8 4 5 4 6 7 4 7 8 13 16 19 22 25 25 25 22 22
5 4 5 5 5 4 3 5 5 5 6 7 6 6 6 8 14 12 7 5 6 6 6 7 9 9 9 9 11 9 11 12 11 6 8 7 8 9 9 15 16 20 22
5 5 5 4 5 3 9 10 8 5 6 6 6 7 6 10 11 17 18 19 14 9 8 7 11 13 13 11 10 12 10 9 11 6 9 10 8 9 10 8 19 25 26
3 4 4 5 5 5 10 12 12 4 5 6 6 6 7 7 13 9 14 18 16 18 18 12 12 11 11 9 11 11 10 10 13 10 8 12 9 11 10 11 26 27 26
3 3 4 5 5 4 11 13 13 4 5 6 6 7 7 8 9 12 11 10 10 9 11 8 10 13 12 13 12 12 13 10 8 9 5 12 10 11 8 9 22 27 28
3 3 2 4 5 6 12 14 12 5 6 6 6 7 7 7 13 21 14 14 14 12 13 21 23 25 26 27 21 12 9 6 10 13 4 8 10 10 9 11 10 24 27
2 3 4 4 6 6 12 15 13 4 6 5 6 7 12 16 24 24 16 13 13 12 11 12 11 12 14 12 21 10 8 10 9 12 2 5 10 7 10 6 7 5 6
Wind_Direction
101 91 73 51 48 44 50 52 68 65 57 53 58 78 89 103 95 64 40 42 49 47 47 38 17 358 4 29 32 27 17 6 25 16 17 10 15 25 9 1 17 359 7
113 96 77 54 48 46 45 66 80 69 49 36 41 28 23 336 133 107 78 37 58 51 44 33 21 11 359 7 26 32 13 2 358 348 351 4 11 5 353 351 17 27 10
104 102 86 66 57 50 61 58 60 53 46 26 36 8 7 358 155 137 132 103 49 34 37 28 14 9 2 1 7 10 4 357 350 353 350 354 3 353 330 347 4 7 9
108 92 86 52 76 69 60 63 40 49 43 28 353 331 330 344 19 211 192 181 106 20 11 13 17 9 0 350 342 337 330 330 337 339 330 329 332 336 331 333 341 352 357
103 105 91 59 73 74 59 53 41 60 34 356 320 304 305 298 285 241 236 225 239 216 262 304 338 343 333 326 325 320 315 309 310 313 314 311 303 298 309 316 322 321 313
103 102 95 88 76 80 56 52 70 34 56 350 305 306 292 283 280 259 256 270 262 258 268 279 308 307 302 299 301 305 303 304 300 297 297 300 298 292 283 281 289 303 305
109 106 108 94 66 81 67 46 72 45 12 351 357 338 321 310 269 268 277 275 278 280 286 286 286 289 295 293 288 288 285 292 292 290 286 284 287 287 286 278 273 273 288
108 120 115 98 82 86 51 48 52 33 11 14 80 65 357 334 346 352 311 274 273 299 290 282 279 276 273 276 274 279 283 286 286 285 284 281 279 282 282 280 276 268 274
119 131 118 106 79 81 72 58 65 54 15 356 44 128 21 306 325 321 338 318 304 300 295 291 283 272 265 254 264 273 277 278 281 284 281 281 279 276 276 275 274 268 268
137 148 122 107 103 89 78 86 94 92 88 26 349 38 74 157 73 329 328 325 339 331 319 299 294 285 272 263 265 262 266 271 276 280 279 277 277 272 270 271 270 268 265
152 156 135 132 117 104 140 114 85 87 88 115 103 344 7 29 73 159 286 316 331 292 292 286 285 286 290 287 281 272 274 275 277 281 282 280 279 275 273 272 272 270 267
157 180 159 154 130 159 177 127 143 163 154 138 167 224 224 258 304 326 291 294 267 291 286 281 285 285 289 288 298 302 300 295 290 288 286 284 281 278 275 276 275 274 272
189 214 184 187 163 198 177 169 175 229 222 213 223 264 235 237 192 207 210 269 286 300 297 274 277 281 298 321 313 321 307 314 311 304 293 283 281 279 278 278 277 275 276
171 158 173 179 204 233 27 118 168 273 248 276 280 250 271 264 217 204 217 219 296 282 295 246 261 269 271 279 296 313 306 308 309 307 301 292 284 284 281 277 277 278 276
156 141 124 114 66 53 38 29 11 334 331 299 288 273 255 277 254 246 232 205 200 288 294 289 290 251 283 300 287 284 277 285 298 299 297 293 285 277 272 271 270 271 273
110 119 83 62 56 55 49 52 19 6 350 320 306 324 314 297 299 275 257 243 217 242 271 243 289 294 283 278 272 275 272 284 292 296 297 296 292 286 278 271 270 271 271
93 84 81 73 57 49 36 39 13 5 359 342 342 345 320 312 304 299 281 266 253 216 261 270 254 278 295 296 294 267 262 265 273 287 295 297 296 293 289 284 277 270 266
76 86 81 71 54 43 34 31 4 359 360 346 329 332 317 317 304 289 275 272 250 257 258 284 276 265 252 278 285 292 284 276 268 279 290 293 295 291 289 286 282 277 273
82 68 70 62 45 30 24 17 14 353 343 318 308 304 295 305 300 297 289 280 270 278 264 278 292 252 254 260 275 275 274 275 271 270 280 285 288 291 292 288 285 283 277
86 71 59 54 40 22 17 6 351 339 324 306 300 289 290 291 285 290 288 278 285 285 282 282 292 293 258 260 257 286 290 279 292 292 285 279 282 288 290 291 288 285 279
77 68 59 44 27 15 355 348 336 325 316 312 306 289 278 277 285 291 294 286 285 286 289 287 294 300 303 305 303 305 299 299 296 271 283 279 280 278 273 283 281 282 282
63 55 43 34 16 347 342 346 344 318 307 302 300 301 296 300 294 298 299 301 300 297 291 287 298 299 301 301 304 299 295 298 295 256 272 282 269 272 276 265 270 279 279
62 45 30 21 1 335 342 343 338 309 296 297 297 301 304 300 307 295 295 299 295 291 293 294 292 286 289 291 284 296 288 277 276 284 290 285 283 278 274 273 278 275 273
53 37 20 359 344 327 342 341 339 316 305 296 289 285 282 287 285 302 295 287 285 270 277 278 277 281 269 278 282 279 277 275 268 273 264 279 284 273 271 269 274 280 280
37 28 344 349 342 319 339 342 344 324 312 304 295 293 289 286 296 317 319 311 306 301 292 290 290 294 293 296 303 307 290 282 298 292 277 270 277 284 280 272 266 272 277
29 5 347 337 327 322 336 342 342 322 316 294 272 269 287 312 316 315 309 304 297 296 295 289 286 297 299 293 297 290 289 284 288 289 279 302 289 300 292 253 260 276 263